Weather History for KMCK - September, 2014

Change the Weather History Date:

Friday, September 12, 2014

  Actual Average Record
Temperature  
Mean Temperature 43 °F 66 °F  
Max Temperature 52 °F 81 °F 103 °F (1911)
Min Temperature 34 °F 51 °F 34 °F (2014)
Degree Days  
Heating Degree Days 22    
Moisture  
Dew Point 36 °F    
Average Humidity 84    
Maximum Humidity 96    
Minimum Humidity 54    
Precipitation  
Precipitation 0.00 in 0.04 in 1.61 in (2002)
Month to date precipitation 0.48 0.60  
Year to date precipitation 21.43 18.31  
Sea Level Pressure  
Sea Level Pressure 30.50 in    
Wind  
Wind Speed 13 mph (North)    
Max Wind Speed 20 mph    
Max Gust Speed 24 mph    
Visibility 8 miles    
Events      
T = Trace of Precipitation, MM = Missing Value Source: NWS Daily Summary

Daily Weather History Graph

Daily Weather History Graph

Search for Another Location

Airport or City:

Trip Planner

Search our weather history database for the weather conditions in past years. The results will help you decide how hot, cold, wet, or windy it might be!

Date:

Astronomy

Sep. 12, 2014 Rise Set
Actual Time 7:20 AM CDT 7:56 PM CDT
Civil Twilight 6:53 AM CDT 8:23 PM CDT
Nautical Twilight 6:20 AM CDT 8:55 PM CDT
Astronomical Twilight 5:47 AM CDT 9:28 PM CDT
Moon 10:17 PM CDT (9/12) 11:26 AM CDT (9/12)
Length of Visible Light 13h 30m
Length of Day
12h 35m
Waning Gibbous, 83% of the Moon is Illuminated
Sep 12
Waning Gibbous
Sep 15
Last Quarter
Sep 24
New
Oct 1
First Quarter
Oct 8
Full

Hourly Weather History & Observations

Time (CDT) Temp. Windchill Dew Point Humidity Pressure Visibility Wind Dir Wind Speed Gust Speed Precip Events Conditions
12:01 AM 43.0 °F 35.7 °F 41.0 °F 93% 30.42 in 2.5 mi North 15.0 mph - N/A   Overcast
12:06 AM 42.8 °F 35.1 °F 41.0 °F 93% 30.43 in 3.0 mi North 16.1 mph - N/A   Overcast
12:53 AM 41.0 °F 31.9 °F 39.0 °F 93% 30.48 in 4.0 mi North 19.6 mph 23.0 mph N/A   Overcast
1:12 AM 39.9 °F 31.8 °F 37.0 °F 89% 30.47 in 7.0 mi North 15.0 mph 24.2 mph N/A   Overcast
1:16 AM 39.0 °F 29.3 °F 37.0 °F 93% 30.46 in 8.0 mi North 19.6 mph 24.2 mph N/A   Overcast
1:35 AM 37.9 °F 29.2 °F 36.0 °F 93% 30.48 in 6.0 mi North 15.0 mph - N/A   Overcast
1:53 AM 37.9 °F 29.6 °F 36.0 °F 93% 30.52 in 9.0 mi North 13.8 mph - N/A   Overcast
2:08 AM 37.9 °F 28.9 °F 36.0 °F 93% 30.48 in 7.0 mi North 16.1 mph - N/A   Overcast
2:17 AM 37.0 °F 27.0 °F 36.0 °F 96% 30.48 in 6.0 mi North 18.4 mph - N/A   Overcast
2:50 AM 37.4 °F 28.2 °F 35.6 °F 93% 30.48 in 4.0 mi North 16.1 mph - N/A   Overcast
2:53 AM 37.0 °F 27.4 °F 36.0 °F 96% 30.52 in 4.0 mi North 17.3 mph - N/A   Overcast
3:10 AM 37.0 °F 29.3 °F 36.0 °F 96% 30.47 in 8.0 mi North 11.5 mph - N/A   Overcast
3:18 AM 37.0 °F 28.5 °F 35.1 °F 93% 30.47 in 9.0 mi North 13.8 mph - N/A   Overcast
3:26 AM 37.4 °F 29.3 °F 35.6 °F 93% 30.47 in 10.0 mi North 12.7 mph - N/A   Overcast
3:53 AM 37.0 °F 29.8 °F 36.0 °F 96% 30.51 in 10.0 mi North 10.4 mph - N/A   Overcast
4:28 AM 37.9 °F 30.9 °F 36.0 °F 93% 30.48 in 10.0 mi North 10.4 mph - N/A   Overcast
4:53 AM 37.9 °F 30.9 °F 36.0 °F 93% 30.52 in 10.0 mi North 10.4 mph - N/A   Overcast
5:26 AM 37.9 °F 30.0 °F 36.0 °F 93% 30.48 in 7.0 mi North 12.7 mph - N/A   Overcast
5:34 AM 37.9 °F 28.9 °F 36.0 °F 93% 30.48 in 7.0 mi North 16.1 mph - N/A   Overcast
5:42 AM 37.4 °F 29.3 °F 35.6 °F 93% 30.48 in 6.0 mi North 12.7 mph - N/A   Overcast
5:49 AM 37.4 °F 29.8 °F 35.6 °F 93% 30.49 in 5.0 mi North 11.5 mph - N/A   Overcast
5:53 AM 37.0 °F 29.3 °F 36.0 °F 96% 30.53 in 5.0 mi North 11.5 mph - N/A   Overcast
6:11 AM 37.0 °F 29.3 °F 36.0 °F 96% 30.50 in 10.0 mi NNW 11.5 mph - N/A   Overcast
6:44 AM 37.9 °F 31.5 °F 36.0 °F 93% 30.50 in 10.0 mi North 9.2 mph - N/A   Overcast
6:53 AM 37.4 °F 30.8 °F 35.6 °F 93% 30.51 in 10.0 mi North 9.2 mph - N/A   Overcast
7:28 AM 39.0 °F 30.6 °F 36.0 °F 89% 30.51 in 10.0 mi North 15.0 mph - N/A   Overcast
7:53 AM 39.0 °F 31.0 °F 36.0 °F 89% 30.56 in 8.0 mi North 13.8 mph - N/A   Overcast
8:01 AM 39.0 °F 32.8 °F 37.0 °F 93% 30.51 in 7.0 mi North 9.2 mph - N/A   Overcast
8:37 AM 39.9 °F 32.1 °F 37.0 °F 89% 30.51 in 10.0 mi North 13.8 mph - N/A   Overcast
8:53 AM 39.9 °F 31.8 °F 37.0 °F 89% 30.56 in 10.0 mi North 15.0 mph - N/A   Overcast
9:53 AM 41.0 °F 33.5 °F 37.9 °F 89% 30.56 in 10.0 mi North 13.8 mph - N/A   Overcast
10:04 AM 42.1 °F 34.5 °F 37.9 °F 85% 30.52 in 10.0 mi North 15.0 mph - N/A   Overcast
10:53 AM 43.0 °F 37.2 °F 37.9 °F 82% 30.56 in 10.0 mi North 10.4 mph - N/A   Overcast
11:53 AM 44.1 °F 39.0 °F 37.0 °F 76% 30.56 in 10.0 mi NNE 9.2 mph - N/A   Overcast
12:53 PM 45.0 °F 40.1 °F 36.0 °F 71% 30.55 in 10.0 mi North 9.2 mph - N/A   Overcast
1:53 PM 46.0 °F 39.9 °F 37.0 °F 71% 30.55 in 10.0 mi North 13.8 mph - N/A   Overcast
2:03 PM 46.0 °F 39.9 °F 36.0 °F 68% 30.50 in 10.0 mi North 13.8 mph - N/A   Overcast
2:12 PM 46.0 °F 40.6 °F 37.0 °F 71% 30.50 in 10.0 mi North 11.5 mph - N/A   Overcast
2:21 PM 46.9 °F - 36.0 °F 66% 30.50 in 10.0 mi North 10.4 mph - N/A   Overcast
2:53 PM 46.9 °F - 37.0 °F 68% 30.53 in 10.0 mi North 13.8 mph - N/A   Overcast
3:03 PM 46.9 °F - 36.0 °F 66% 30.48 in 10.0 mi NNE 13.8 mph - N/A   Overcast
3:53 PM 48.0 °F - 35.1 °F 61% 30.51 in 10.0 mi NE 8.1 mph - N/A   Overcast
4:53 PM 48.9 °F - 35.1 °F 59% 30.49 in 10.0 mi ENE 9.2 mph - N/A   Overcast
5:53 PM 50.0 °F - 35.1 °F 57% 30.48 in 10.0 mi ENE 6.9 mph - N/A   Overcast
6:53 PM 48.9 °F - 33.1 °F 54% 30.47 in 10.0 mi SSW 3.5 mph - N/A   Scattered Clouds
7:53 PM 46.9 °F - 35.1 °F 63% 30.47 in 10.0 mi SW 3.5 mph - N/A   Scattered Clouds
8:53 PM 42.1 °F 38.4 °F 35.1 °F 76% 30.48 in 10.0 mi SSW 5.8 mph - N/A   Partly Cloudy
9:53 PM 39.2 °F 35.0 °F 33.8 °F 81% 30.43 in 10.0 mi South 5.8 mph - N/A   Clear
10:53 PM 37.9 °F 33.5 °F 33.1 °F 83% 30.47 in 10.0 mi SSW 5.8 mph - N/A   Clear
11:53 PM 36.0 °F 32.1 °F 33.1 °F 89% 30.47 in 10.0 mi SSW 4.6 mph - N/A   Clear